{"data":{"norad_id":59312,"intl_designator":"2024-056S","name":"STARLINK-31445","alt_names":[],"object_type":"PAYLOAD","status":"ACTIVE","operator":null,"country":"US","launch_date":"2024-03-24","launch_site_code":"AFETR","launch_vehicle":null,"mission":null,"orbit_class":"UNKNOWN","rcs_meters":null,"size_class":null,"mass_kg":null,"dimensions":null,"purposes":["comms"],"wikipedia_slug":null,"has_3d_model":false,"image_url":null,"decayed_at":null,"tle_current":{"epoch":"2026-05-25T01:39:39.465792Z","epoch_age_seconds":79604,"freshness":"FRESH","line1":"1 59312U 24056S   26145.06920678  .00001098  00000+0  49423-4 0  9996","line2":"2 59312  42.9992 166.4404 0001315 266.2123  93.8579 15.27577306122755","mean_motion":15.27577306,"eccentricity":0.0001315,"inclination_deg":42.9992,"raan_deg":166.4404,"arg_perigee_deg":266.2123,"mean_anomaly_deg":93.8579,"bstar":4.9423e-5,"rev_number":12275,"period_min":94.266914960309,"perigee_km":482.15491582425,"apogee_km":483.95940988908,"semimajor_km":6861.1941628567,"source":"CELESTRAK","updated_at":"2026-05-25T13:38:18.900835Z"}}}